CAPE
1732 1572 1505 1430 1312 1516 1564 1706 1886 1858 1831 2268 2273 2098 2190 2178 1585 1830 1773 1729 2011 2106 1837 1315 1838 1817 1004 402 643 785 706 553 463 331 860 1697 2140 1985 825 227 146 0 0
1680 1721 1611 1557 1433 1323 1595 1499 1666 1806 1506 1268 1581 1740 1944 2038 2054 1924 1557 1184 1500 1733 1710 1955 1726 1396 1836 1951 1166 1754 1400 1455 1045 1138 1662 1252 2050 1501 1606 1049 370 0 0
1808 1552 1612 1582 1517 1404 1374 1604 1573 1671 1724 897 1267 1542 1561 1479 1273 1379 1561 1405 1481 1771 1580 1570 1637 1660 1749 1539 1652 1327 921 1938 1801 2021 1008 1097 1166 1775 1468 1159 820 399 3
1744 1685 1615 1634 1551 1472 1542 1598 1611 1773 1837 1761 1322 1204 1510 1495 1247 1293 1164 1488 1735 1703 1611 1600 1613 1571 1623 2076 1894 2220 1992 1866 2455 1726 1212 2218 2845 2724 1508 2179 1782 544 185
2032 2027 1976 1825 1921 1836 1763 1846 1865 1760 1811 1856 1714 1924 1865 1054 1140 1410 1522 1400 1488 1650 1358 1546 1636 1292 1362 1390 1985 2131 2492 2930 2564 3148 2524 3157 2588 2590 1380 1095 1256 963 953
1872 1841 1925 2228 2159 2402 2305 2298 2308 2020 1891 1885 1857 1829 1750 1396 528 394 762 1195 1463 1878 1802 1613 1686 1352 1327 956 820 815 1151 2192 2093 2964 2380 2076 2509 2345 2150 1765 969 729 916
1603 1658 1492 1618 1673 1769 1743 2201 2412 2164 1982 2091 1918 1740 1784 1842 1064 753 643 1179 1174 1607 1577 1700 1482 1237 1338 1756 1352 985 920 750 588 1751 2471 2441 1962 1712 1672 1644 1413 1063 972
775 721 847 650 717 972 1363 1633 1871 1952 2122 2337 2375 2467 2149 1990 1193 1030 904 1461 1442 1447 1840 1640 2325 1831 1657 1485 1596 1899 1674 1517 731 588 1297 1534 1108 912 845 900 669 325 231
249 393 759 818 334 533 257 699 1456 1579 1826 1773 1677 1747 1854 1908 1235 1272 957 1441 1479 1880 2242 1963 1554 1676 808 763 762 1566 1710 1052 664 268 236 158 78 100 120 60 217 162 31
154 174 184 528 474 349 410 310 99 278 436 364 445 346 249 786 567 772 547 882 1517 2142 2153 986 575 401 374 377 382 968 1137 951 405 180 129 92 89 89 61 49 45 47 31
608 708 643 585 335 286 63 36 87 95 79 61 47 42 46 63 41 46 130 198 785 1067 1292 949 271 184 177 131 126 92 153 222 230 189 147 142 118 95 92 68 62 49 16
699 697 556 591 254 271 127 75 119 93 39 57 5 10 43 42 4 13 52 93 103 527 528 242 96 63 39 52 47 42 95 119 109 134 128 128 132 109 79 38 13 6 0
270 271 304 334 236 301 186 142 137 130 131 117 98 73 39 25 17 33 59 84 64 75 36 40 36 32 11 9 9 31 26 48 71 91 62 76 49 18 19 17 11 1 1
321 359 199 277 317 261 194 129 54 52 68 43 21 16 57 45 59 53 56 52 50 33 16 20 24 25 22 10 2 1 8 7 10 0 3 15 12 3 8 7 7 11 2
325 208 179 192 138 153 136 108 16 6 2 0 0 6 34 4 10 9 1 4 1 6 2 2 11 14 12 7 1 2 2 5 4 7 16 32 33 18 6 4 0 2 0
417 166 26 4 6 20 47 28 24 20 0 0 0 0 0 0 0 0 3 2 5 3 0 1 7 33 4 3 6 10 21 39 58 48 38 23 51 22 16 8 3 10 1
274 174 155 79 49 5 111 36 17 32 5 0 0 5 4 0 0 0 0 0 0 3 6 15 11 35 39 38 27 16 9 17 32 38 19 12 17 12 0 0 0 0 0
270 149 115 85 27 10 7 14 3 15 21 24 14 15 17 7 5 0 0 1 0 0 20 32 24 5 5 7 1 5 18 36 24 44 41 41 5 0 0 0 0 0 3
297 177 184 119 95 37 77 1 3 1 23 25 11 8 13 13 10 0 0 0 4 0 5 6 0 0 0 0 2 0 0 0 0 0 0 0 0 0 0 0 0 0 0
361 132 79 108 50 13 9 3 4 0 0 0 0 0 0 0 0 2 0 0 1 1 1 0 0 0 0 0 0 0 0 0 0 0 0 0 0 0 0 0 0 0 0
185 179 123 235 42 0 0 0 0 0 0 0 0 0 0 0 0 0 0 0 0 0 0 0 0 0 0 0 0 0 0 0 0 0 0 0 0 0 0 0 0 0 0
44 80 65 30 3 0 0 0 0 0 0 0 0 0 0 0 0 0 0 0 0 0 0 0 0 0 0 0 0 0 0 0 0 0 0 0 0 0 0 0 0 0 0
1 45 50 33 14 0 0 6 1 0 0 0 0 0 0 0 0 0 0 0 0 0 0 0 0 2 0 0 0 0 0 0 0 0 0 0 0 0 0 0 0 0 0
35 6 2 5 1 0 2 3 2 0 0 1 5 6 4 0 0 0 0 0 0 0 0 0 0 0 0 0 0 0 0 0 0 0 0 0 0 0 0 0 0 0 0
15 20 15 19 13 4 13 11 30 31 11 1 4 6 9 8 6 0 0 0 0 0 0 0 0 0 0 0 0 0 0 0 0 0 0 0 0 0 0 2 0 0 0
1 0 5 10 14 18 24 34 35 43 40 31 25 20 22 23 27 33 30 10 0 0 0 0 0 0 0 4 2 0 0 0 0 0 1 9 10 16 1 6 10 7 17
CIN
0 0 0 0 0 0 0 0 0 0 0 -1 -1 0 0 0 0 0 0 0 0 0 0 0 0 0 0 0 0 0 0 0 0 -10 -1 -3 -2 -3 -6 -72 -62 0 0
0 0 0 0 0 0 0 0 0 0 0 0 0 0 0 0 0 0 0 0 0 0 0 0 0 0 0 0 0 0 0 0 0 0 0 0 -3 -1 0 -12 -29 0 0
0 0 0 0 0 0 0 0 0 0 0 -5 0 0 0 -1 0 0 0 0 0 0 0 0 0 0 0 0 0 0 0 -2 0 0 0 0 0 0 0 -3 -8 -17 -6
0 -1 0 0 0 0 0 0 0 0 0 0 -3 0 0 0 0 0 0 0 0 0 0 0 0 0 0 0 0 0 0 0 0 0 0 0 0 0 0 0 0 -1 -7
-1 0 0 0 0 0 0 0 0 0 0 0 0 0 0 0 0 0 0 0 0 0 0 0 0 -5 -3 -12 -1 0 0 0 0 0 0 0 0 0 0 0 0 0 -2
0 0 0 0 0 0 0 0 0 0 0 0 0 0 0 0 -2 -21 -35 0 0 0 0 0 0 -7 -3 -21 -40 -41 -23 0 0 0 0 0 0 0 0 0 0 0 0
-2 -2 -7 -2 0 0 0 0 0 0 0 0 0 0 0 0 -3 -18 -34 -5 0 0 0 0 0 0 -3 0 -1 -24 -20 -30 -39 -11 0 0 0 0 0 0 0 0 0
-2 -21 -14 -31 -21 -8 -3 0 0 0 0 0 0 0 0 0 -3 -7 -30 -11 0 0 0 0 0 0 -1 -4 0 0 0 -1 -42 -42 -1 0 -1 0 0 0 0 0 0
-54 -24 0 -1 -15 -7 -39 -1 0 0 0 0 0 0 0 0 -3 -3 -27 -1 0 0 0 0 0 0 -11 -28 -35 -1 0 -1 -32 -37 -29 -15 -10 -16 -17 -15 0 0 -5
-29 -59 -43 -4 0 -2 -9 -6 -22 0 0 0 0 -12 -31 -2 -37 -19 -27 -6 0 0 0 -12 -44 -46 -50 -44 -40 -3 0 -3 -23 -35 -16 -30 -3 -4 -2 -8 -3 -2 0
0 0 -3 -2 -8 -2 -22 -20 -5 -2 -1 -3 -1 -2 -16 -12 -32 -84 -44 -35 -3 0 0 -2 -54 -49 -47 -39 -33 -29 -30 -12 -16 -18 -12 -7 -1 0 0 0 0 0 -5
-2 -2 -6 0 -7 -11 -41 -54 -15 -2 -2 -4 -27 -33 -15 -4 -24 -106 -79 -55 -24 -1 0 -16 -42 -54 -58 -70 -74 -56 -44 -14 -2 -1 0 0 0 0 0 -2 -1 -23 -3
-26 -32 -37 -8 -3 -5 -15 -14 -6 0 -3 0 -1 -4 -32 -85 -28 -19 -18 -29 -17 -9 -18 -12 -14 -17 -30 -14 -22 -25 -23 -18 -5 0 0 0 0 -1 0 -1 -3 0 0
-15 -1 -18 -22 -1 -4 -13 -21 -45 -33 -32 -32 -40 -81 -105 -57 -28 -31 -17 -17 -11 -5 -1 0 -2 -1 0 0 0 -38 -37 -13 -2 -1 0 0 0 -9 -2 -3 -1 0 0
0 -13 -15 -12 -20 -9 -8 -13 -49 -29 -10 0 0 -92 -149 -120 -105 -110 0 -22 -3 -4 -1 -4 -1 -1 0 -2 -3 -1 -2 -1 -1 -5 -1 -2 -1 -1 -4 -1 -1 -8 -1
0 -5 -10 -104 -79 -55 -43 -97 -56 -28 -1 0 0 0 0 0 0 -1 -1 -1 -1 -1 0 -2 -6 -1 -1 -2 -6 -9 -33 -4 -1 -2 0 0 -1 -12 -5 -4 -1 0 -1
-3 -2 -2 -11 -20 -1 -1 -17 -44 -26 -25 0 0 -50 -50 0 0 0 0 0 0 0 -18 -6 -1 0 -2 -4 0 0 0 -2 -2 -3 -18 -15 -15 -20 -2 -2 0 0 0
-8 -20 -21 -22 -42 -4 -22 -10 -5 -29 -28 -27 -51 -40 -21 -30 -16 0 0 -8 0 -3 -3 0 0 -1 -3 -2 -3 0 -9 -1 -2 0 -3 -4 -14 0 0 0 0 0 -1
-19 -35 -21 -28 -27 -33 -6 -7 -4 0 -17 -19 -29 -23 -37 -37 -38 0 0 0 0 0 0 0 0 0 0 0 0 0 0 0 0 0 0 0 0 0 0 0 0 0 0
-8 -56 -86 -48 -62 -94 -59 -44 -43 0 0 0 0 0 0 0 0 0 0 0 0 0 0 0 0 0 0 0 0 0 0 0 0 0 0 0 0 0 0 0 0 0 0
-16 -24 -22 -1 -46 0 0 0 0 0 0 0 0 0 0 0 0 0 0 0 0 0 0 0 0 0 0 0 0 0 0 0 0 0 0 0 0 0 0 0 0 0 0
-155 -85 -67 -96 -129 0 0 0 0 0 0 0 0 0 0 0 0 0 0 0 0 0 0 0 0 0 0 0 0 0 0 0 0 0 0 0 0 0 0 0 0 0 0
-121 -136 -111 -131 -171 0 0 0 0 0 0 0 0 0 0 0 0 0 0 0 0 0 0 0 0 0 0 0 0 0 0 0 0 0 0 0 0 0 0 0 0 0 0
-187 0 0 0 0 0 0 0 0 0 0 0 0 0 0 0 0 0 0 0 0 0 0 0 0 0 0 0 0 0 0 0 0 0 0 0 0 0 0 0 0 0 0
-177 -164 0 0 0 0 0 0 0 0 0 0 0 0 0 0 0 0 0 0 0 0 0 0 0 0 0 0 0 0 0 0 0 0 0 0 0 0 0 0 0 0 0
0 0 0 0 0 0 0 0 0 0 0 0 0 0 0 0 0 0 0 -1 0 0 0 0 0 0 0 0 0 0 0 0 0 0 -11 -2 -1 0 -2 -4 0 0 0
Wind_Speed
12 10 9 10 8 6 7 9 10 12 15 16 16 17 14 13 14 13 10 14 11 10 9 9 9 10 9 6 9 7 8 8 6 6 11 13 5 4 10 9 14 nan nan
14 15 12 11 11 8 8 8 8 7 8 13 15 18 17 16 18 15 13 14 10 12 10 9 10 11 11 9 9 9 8 9 8 7 8 8 11 10 10 13 12 nan nan
18 15 14 12 11 10 12 11 9 8 8 9 12 14 15 17 16 15 14 13 13 10 10 13 11 12 10 10 11 11 11 15 7 7 6 10 9 14 16 15 15 15 nan
18 17 15 14 13 13 12 11 9 10 9 9 10 12 14 14 14 15 15 14 15 13 12 14 12 12 11 11 12 12 10 8 9 8 8 12 15 17 18 17 19 23 20
18 18 19 18 19 19 17 16 14 11 11 11 10 10 11 13 14 13 15 16 15 13 14 14 14 13 17 16 16 13 15 13 13 16 16 16 18 22 19 21 20 21 29
25 24 24 26 22 22 22 21 19 17 16 16 16 17 17 17 16 19 17 15 14 15 16 15 16 17 16 17 16 14 13 13 14 16 18 18 19 22 22 23 23 25 27
26 26 29 26 24 26 28 26 25 23 22 20 19 20 20 19 22 24 22 18 18 18 20 20 20 20 22 16 18 17 19 20 17 19 18 21 21 25 27 27 28 27 29
34 35 32 32 31 31 30 28 28 31 29 28 26 25 24 26 27 27 25 21 20 20 20 20 21 21 25 25 20 19 20 24 30 29 24 27 31 31 30 30 32 36 42
45 39 33 32 35 34 34 39 34 34 35 35 34 32 31 31 45 41 36 27 25 24 25 23 25 27 39 36 29 26 27 35 42 46 50 47 nan 40 35 nan 37 40 nan
42 34 40 37 34 35 35 37 nan 37 37 40 41 44 50 42 52 46 40 35 30 31 31 38 46 41 44 39 35 33 31 36 38 46 45 nan nan nan nan nan nan nan nan
48 44 41 37 40 41 nan nan nan nan nan nan nan nan nan nan nan nan 45 38 34 34 36 40 45 44 40 41 40 nan 42 44 44 45 46 46 50 nan nan nan nan nan nan
12 23 37 37 29 27 27 nan 32 nan nan nan nan nan nan nan nan nan nan nan 37 38 42 43 nan nan nan nan nan nan nan 54 49 46 49 50 53 55 nan nan nan nan nan
20 19 21 23 26 26 30 38 29 26 29 27 nan nan nan nan nan nan nan nan nan nan nan nan nan nan nan nan nan nan nan nan nan nan nan nan nan nan nan nan nan nan nan
31 32 30 32 34 30 31 28 nan nan nan nan nan nan nan nan nan nan nan nan nan nan nan nan nan nan nan nan nan nan nan nan nan nan nan nan nan nan nan nan nan nan nan
34 36 36 37 38 37 37 35 nan nan nan nan nan nan nan nan nan nan nan nan nan nan nan nan nan nan nan nan nan nan nan nan nan nan nan nan nan nan nan nan nan nan nan
33 30 nan nan nan nan nan nan nan nan nan nan nan nan nan nan nan nan nan nan nan nan nan nan nan nan nan nan nan nan nan nan nan nan nan nan nan nan nan nan nan nan nan
35 35 32 nan nan nan 35 nan nan nan nan nan nan nan nan nan nan nan nan nan nan nan nan nan nan nan nan nan nan nan nan nan nan nan nan nan nan nan nan nan nan nan nan
34 33 31 nan nan nan nan nan nan nan nan nan nan nan nan nan nan nan nan nan nan nan nan nan nan nan nan nan nan nan nan nan nan nan nan nan nan nan nan nan nan nan nan
20 22 24 28 nan nan nan nan nan nan nan nan nan nan nan nan nan nan nan nan nan nan nan nan nan nan nan nan nan nan nan nan nan nan nan nan nan nan nan nan nan nan nan
21 25 nan 21 nan nan nan nan nan nan nan nan nan nan nan nan nan nan nan nan nan nan nan nan nan nan nan nan nan nan nan nan nan nan nan nan nan nan nan nan nan nan nan
18 21 18 18 nan nan nan nan nan nan nan nan nan nan nan nan nan nan nan nan nan nan nan nan nan nan nan nan nan nan nan nan nan nan nan nan nan nan nan nan nan nan nan
nan nan nan nan nan nan nan nan nan nan nan nan nan nan nan nan nan nan nan nan nan nan nan nan nan nan nan nan nan nan nan nan nan nan nan nan nan nan nan nan nan nan nan
nan nan nan nan nan nan nan nan nan nan nan nan nan nan nan nan nan nan nan nan nan nan nan nan nan nan nan nan nan nan nan nan nan nan nan nan nan nan nan nan nan nan nan
nan nan nan nan nan nan nan nan nan nan nan nan nan nan nan nan nan nan nan nan nan nan nan nan nan nan nan nan nan nan nan nan nan nan nan nan nan nan nan nan nan nan nan
nan nan nan nan nan nan nan nan nan nan nan nan nan nan nan nan nan nan nan nan nan nan nan nan nan nan nan nan nan nan nan nan nan nan nan nan nan nan nan nan nan nan nan
nan nan nan nan nan nan nan nan nan nan nan nan nan nan nan nan nan nan nan nan nan nan nan nan nan nan nan nan nan nan nan nan nan nan nan nan nan nan nan nan nan nan nan
Wind_Direction
261 246 245 245 223 206 202 209 209 193 185 201 205 207 213 215 218 227 205 199 227 210 214 234 256 245 245 260 280 281 290 296 290 257 264 277 282 312 299 306 306 nan nan
227 246 234 237 240 220 219 230 206 202 202 195 207 211 211 211 226 227 213 200 239 230 232 241 249 248 269 242 251 271 274 273 258 257 244 265 304 291 297 309 307 nan nan
217 235 239 230 242 228 224 224 232 215 216 208 204 216 218 221 214 219 220 214 217 226 234 240 240 251 249 243 232 253 281 284 284 284 258 280 280 289 302 305 300 300 nan
215 221 237 237 219 227 235 231 216 226 221 232 222 204 209 215 209 207 209 217 225 240 245 245 236 233 240 252 264 268 259 251 277 272 261 270 276 284 288 285 297 303 300
226 228 228 225 228 220 228 237 232 221 217 214 214 226 226 216 223 232 225 224 223 234 236 242 240 231 248 255 260 256 245 258 245 257 270 267 273 283 285 281 285 290 300
249 244 231 230 225 233 231 233 236 232 229 228 228 223 218 221 226 254 240 233 232 239 236 233 233 249 259 270 274 270 266 265 263 261 268 265 267 273 277 286 285 290 293
245 246 240 231 228 232 234 236 238 241 240 238 232 231 230 228 239 251 252 227 227 233 232 237 238 244 258 250 272 268 269 269 264 257 265 268 264 268 270 279 285 283 285
233 237 246 241 245 236 241 236 240 240 242 243 240 237 234 237 242 249 252 236 232 239 244 247 250 245 245 247 246 249 263 274 268 261 263 263 262 266 276 278 279 281 283
228 226 232 240 248 250 251 242 247 245 250 253 247 241 239 237 245 245 249 245 247 247 251 249 247 250 258 251 250 255 261 275 265 269 268 263 nan 267 266 nan 290 291 nan
236 233 230 237 248 240 251 248 nan 241 244 247 245 244 244 239 244 242 249 246 246 252 256 264 257 255 258 254 254 255 262 275 277 276 278 nan nan nan nan nan nan nan nan
233 235 232 238 249 256 nan nan nan nan nan nan nan nan nan nan nan nan 240 246 249 250 254 262 263 261 264 269 262 nan 260 270 277 278 276 279 279 nan nan nan nan nan nan
216 222 230 228 229 230 240 nan 254 nan nan nan nan nan nan nan nan nan nan nan 240 255 258 259 nan nan nan nan nan nan nan 266 265 270 278 279 278 277 nan nan nan nan nan
256 264 264 252 237 238 251 244 244 244 251 249 nan nan nan nan nan nan nan nan nan nan nan nan nan nan nan nan nan nan nan nan nan nan nan nan nan nan nan nan nan nan nan
263 262 260 261 263 260 262 262 nan nan nan nan nan nan nan nan nan nan nan nan nan nan nan nan nan nan nan nan nan nan nan nan nan nan nan nan nan nan nan nan nan nan nan
254 255 257 256 252 253 252 252 nan nan nan nan nan nan nan nan nan nan nan nan nan nan nan nan nan nan nan nan nan nan nan nan nan nan nan nan nan nan nan nan nan nan nan
261 261 nan nan nan nan nan nan nan nan nan nan nan nan nan nan nan nan nan nan nan nan nan nan nan nan nan nan nan nan nan nan nan nan nan nan nan nan nan nan nan nan nan
266 261 260 nan nan nan 260 nan nan nan nan nan nan nan nan nan nan nan nan nan nan nan nan nan nan nan nan nan nan nan nan nan nan nan nan nan nan nan nan nan nan nan nan
268 266 268 nan nan nan nan nan nan nan nan nan nan nan nan nan nan nan nan nan nan nan nan nan nan nan nan nan nan nan nan nan nan nan nan nan nan nan nan nan nan nan nan
263 264 266 263 nan nan nan nan nan nan nan nan nan nan nan nan nan nan nan nan nan nan nan nan nan nan nan nan nan nan nan nan nan nan nan nan nan nan nan nan nan nan nan
263 254 nan 259 nan nan nan nan nan nan nan nan nan nan nan nan nan nan nan nan nan nan nan nan nan nan nan nan nan nan nan nan nan nan nan nan nan nan nan nan nan nan nan
274 273 243 258 nan nan nan nan nan nan nan nan nan nan nan nan nan nan nan nan nan nan nan nan nan nan nan nan nan nan nan nan nan nan nan nan nan nan nan nan nan nan nan
nan nan nan nan nan nan nan nan nan nan nan nan nan nan nan nan nan nan nan nan nan nan nan nan nan nan nan nan nan nan nan nan nan nan nan nan nan nan nan nan nan nan nan
nan nan nan nan nan nan nan nan nan nan nan nan nan nan nan nan nan nan nan nan nan nan nan nan nan nan nan nan nan nan nan nan nan nan nan nan nan nan nan nan nan nan nan
nan nan nan nan nan nan nan nan nan nan nan nan nan nan nan nan nan nan nan nan nan nan nan nan nan nan nan nan nan nan nan nan nan nan nan nan nan nan nan nan nan nan nan
nan nan nan nan nan nan nan nan nan nan nan nan nan nan nan nan nan nan nan nan nan nan nan nan nan nan nan nan nan nan nan nan nan nan nan nan nan nan nan nan nan nan nan
nan nan nan nan nan nan nan nan nan nan nan nan nan nan nan nan nan nan nan nan nan nan nan nan nan nan nan nan nan nan nan nan nan nan nan nan nan nan nan nan nan nan nan